Terminal Aerodrome Forecast
Issued by NWS Atlanta, GA

Home | Current Version | Previous Version | Text Only | Print | Product List | Glossary On
Versions: 1 2 3 4 5 6 7 8 9 10 11 12 13 14 15 16 17 18 19 20 21 22 23 24 25 26 27 28 29 30 31 32 33 34 35 36
000
FTUS42 KFFC 060534
TAFAHN
TAF
KAHN 060534Z 0606/0706 01007KT P6SM BKN012
     FM061100 02008KT P6SM BKN025
     FM061400 06008KT P6SM SCT025
     FM062300 27003KT P6SM SKC
     FM070000 00000KT P6SM SKC=

USA.gov is the U.S. government's official web portal to all federal, state and local government web resources and services.